Location: Recife
(8.0585°S, 34.8848°W)
Time: 12:33:28
(UTC-03:00)

Injun/Solrad 3 - Pass Details

Date: 21 April 2026
Orbit: 868 x 988 km, 66.8° (Epoch: 12 May)

Event Time Altitude Azimuth Distance (km) Brightness Sun altitude
Rises 05:34:33 0° 22° (NNE) 3,678 11.6 2.3°
Reaches altitude 10° 05:39:20 10° 54° (NE) 2,730 11.8 3.4°
Maximum altitude 05:41:17 11° 72° (ENE) 2,620 12.8 3.9°
Drops below altitude 10° 05:43:14 10° 90° (E) 2,722 12.4 4.4°
Sets 05:47:56 0° 122° (ESE) 3,654 11.8 5.5°
